STARLINK-1669 (47624 NORAD) Tracking and Keplerian Element Data

This shows tracking and keplerian element data for the satellite.

Feedback or suggestion? Click here.




ElementValue
Catalog47624
NameSTARLINK-1669
Epoch Orbit1005
Epoch Day106.16668981
Epoch Year2021
RAAN168.9541
Inclination53.0463
Eccentricity0.0001378
Argument of Perigee58.5828
Mean Anonmoly125.8337
Mean Motion15.55350075
Decay Rate-0.0048651
L11 47624U 21012E 21106.16668981 -.00486510 00000-0 -74691-2 0 9999
L22 47624 53.0463 168.9541 0001378 58.5828 125.8337 15.55350075 10056

Live tracking and technical data element details for STARLINK-1669 (NORAD 47624). STARLINK-1669 can be tracked NOW for your location showing map with azimuth and elevation plus other details from your city location.

Track the satellite on the map from your city or location and see movement details for azimuth, elevation, latitude, longitude, range, height, and movement on the map or in text.







IsCatalogInMostPopularTable: catalog: 47624, numindb: 19
Update: records affected: 1



GetName: 47624 STARLINK-1669

Hit Count: updated at: Fri, 16 Apr 2021 10:13:04 GMT